Weather History for Miami, FL

Change the Weather History Date:

Tuesday, July 9, 2013

  Actual Average Record
Temperature  
Mean Temperature 82 °F 84 °F  
Max Temperature 87 °F 91 °F 96 °F (1995)
Min Temperature 76 °F 77 °F 69 °F (1927)
Degree Days  
Heating Degree Days 0 0  
Month to date heating degree days 0 0  
Since 1 June heating degree days 0 0  
Since 1 July heating degree days 0 0  
Cooling Degree Days 17 19  
Month to date cooling degree days 159 170  
Year to date cooling degree days 2152 2058  
Since 1 June cooling degree days 707 702  
Growing Degree Days 31 (Base 50)    
Moisture  
Dew Point 71 °F    
Average Humidity 69    
Maximum Humidity 82    
Minimum Humidity 55    
Precipitation  
Precipitation 0.01 in 0.22 in 1.78 in (1946)
Month to date precipitation 1.61 2.23  
Year to date precipitation 27.16 27.25  
Snow  
Snow 0.00 in - - ()
Month to date snowfall 0.0  
Since 1 June snowfall 0.0  
Since 1 July snowfall 0.0  
Snow Depth 0.00 in    
Sea Level Pressure  
Sea Level Pressure 30.11 in    
Wind  
Wind Speed 5 mph (ENE)    
Max Wind Speed 14 mph    
Max Gust Speed 20 mph    
Visibility 10 miles    
Events Rain    
T = Trace of Precipitation, MM = Missing Value Source: NWS Daily Summary

Daily Weather History Graph

Daily Weather History Graph

Search for Another Location

Airport:

Trip Planner

Search our weather history database for the weather conditions in past years. The results will help you decide how hot, cold, wet, or windy it might be!

Date:

Astronomy

Jul. 09, 2013 Rise Set
Actual Time 6:36 AM EDT 8:16 PM EDT
Civil Twilight 6:10 AM EDT 8:41 PM EDT
Nautical Twilight 5:40 AM EDT 9:12 PM EDT
Astronomical Twilight 5:07 AM EDT 9:45 PM EDT
Moon 7:47 AM EDT (7/9) 9:08 PM EDT (7/9)
Length of Visible Light 14h 30m
Length of Day
13h 39m
New Moon, 2% of the Moon is Illuminated
Jul 9
New Moon
Jul 15
First Quarter
Jul 22
Full
Jul 29
Last Quarter
Aug 6
New

Hourly Weather History & Observations

Time (EDT) Temp. Heat Index Dew Point Humidity Pressure Visibility Wind Dir Wind Speed Gust Speed Precip Events Conditions
12:53 AM 81.0 °F 85.2 °F 72.0 °F 74% 30.14 in 10.0 mi ENE 5.8 mph - N/A   Scattered Clouds
1:53 AM 80.1 °F 83.8 °F 72.0 °F 76% 30.13 in 10.0 mi Calm Calm - N/A   Scattered Clouds
2:53 AM 78.1 °F - 73.9 °F 87% 30.12 in 10.0 mi ENE 3.5 mph - 0.01 in Rain Light Rain
3:53 AM 75.9 °F - 71.1 °F 85% 30.09 in 10.0 mi NE 3.5 mph - 0.00 in   Partly Cloudy
4:53 AM 77.0 °F - 71.1 °F 82% 30.08 in 10.0 mi Calm Calm - N/A   Scattered Clouds
5:53 AM 77.0 °F - 71.1 °F 82% 30.09 in 10.0 mi Calm Calm - N/A   Scattered Clouds
6:53 AM 78.1 °F - 71.1 °F 79% 30.10 in 10.0 mi North 3.5 mph - N/A   Scattered Clouds
7:53 AM 79.0 °F - 71.1 °F 77% 30.12 in 10.0 mi North 3.5 mph - N/A   Mostly Cloudy
8:53 AM 80.1 °F 83.8 °F 72.0 °F 76% 30.12 in 10.0 mi NNE 4.6 mph - N/A   Mostly Cloudy
9:53 AM 82.9 °F 88.8 °F 73.0 °F 72% 30.14 in 10.0 mi Variable 5.8 mph - 0.00 in Rain Light Rain
10:53 AM 84.9 °F 90.1 °F 71.1 °F 63% 30.15 in 10.0 mi ENE 8.1 mph - 0.00 in   Mostly Cloudy
11:36 AM 87.8 °F 92.6 °F 69.8 °F 55% 30.15 in 10.0 mi ENE 9.2 mph 17.3 mph N/A   Mostly Cloudy
11:53 AM 82.9 °F 87.0 °F 70.0 °F 65% 30.15 in 10.0 mi East 10.4 mph - N/A   Overcast
12:53 PM 82.9 °F 87.5 °F 71.1 °F 67% 30.14 in 10.0 mi Variable 3.5 mph - 0.00 in   Mostly Cloudy
1:50 PM 82.4 °F 87.2 °F 71.6 °F 70% 30.12 in 10.0 mi WSW 4.6 mph - N/A   Mostly Cloudy
1:53 PM 82.0 °F 86.7 °F 72.0 °F 71% 30.12 in 10.0 mi Variable 4.6 mph - N/A   Mostly Cloudy
2:18 PM 80.6 °F 84.6 °F 71.6 °F 74% 30.12 in 10.0 mi Variable 6.9 mph - 0.00 in Rain Light Rain
2:53 PM 82.0 °F 87.4 °F 73.0 °F 74% 30.11 in 10.0 mi South 5.8 mph - 0.00 in   Mostly Cloudy
3:53 PM 84.0 °F 87.8 °F 69.1 °F 61% 30.09 in 10.0 mi NE 8.1 mph - N/A   Mostly Cloudy
4:53 PM 87.1 °F 91.3 °F 69.1 °F 55% 30.09 in 10.0 mi ENE 6.9 mph - N/A   Mostly Cloudy
5:53 PM 86.0 °F 89.4 °F 68.0 °F 55% 30.08 in 10.0 mi ENE 6.9 mph - N/A   Mostly Cloudy
6:53 PM 84.0 °F 86.5 °F 66.9 °F 56% 30.07 in 10.0 mi NE 10.4 mph - N/A   Mostly Cloudy
7:53 PM 82.0 °F 85.5 °F 69.1 °F 65% 30.07 in 10.0 mi East 6.9 mph - N/A   Mostly Cloudy
8:53 PM 81.0 °F 84.1 °F 69.1 °F 67% 30.08 in 10.0 mi East 6.9 mph - N/A   Mostly Cloudy
9:53 PM 80.1 °F 82.9 °F 69.1 °F 69% 30.09 in 10.0 mi East 9.2 mph - N/A   Mostly Cloudy
10:53 PM 80.1 °F 83.2 °F 70.0 °F 71% 30.09 in 10.0 mi East 6.9 mph - N/A   Mostly Cloudy
11:53 PM 79.0 °F - 71.1 °F 77% 30.09 in 10.0 mi East 3.5 mph - N/A   Mostly Cloudy